MDT,Max TemperatureF,Mean TemperatureF,Min TemperatureF,Max Dew PointF,MeanDew PointF,Min DewpointF,Max Humidity, Mean Humidity, Min Humidity, Max Sea Level PressureIn, Mean Sea Level PressureIn, Min Sea Level PressureIn, Max VisibilityMiles, Mean VisibilityMiles, Min VisibilityMiles, Max Wind SpeedMPH, Mean Wind SpeedMPH, Max Gust SpeedMPH,PrecipitationIn, CloudCover, Events, WindDirDegrees
2013-9-1,87,66,44,43,37,30,82,49,15,30.07,29.98,29.90,10,10,10,17,4,23,0.00,0,,105
2013-9-2,82,66,49,48,42,37,72,48,23,30.07,29.93,29.89,10,10,10,21,4,24,T,2,,184
2013-9-3,83,66,48,58,48,43,90,58,26,30.24,30.08,29.99,10,9,2,25,4,37,0.07,3,Rain-Thunderstorm,98
2013-9-4,80,67,53,56,52,47,100,66,32,30.17,30.10,30.05,10,10,10,15,2,18,T,1,,139
2013-9-5,78,64,50,56,52,47,89,62,35,30.21,30.07,29.98,10,10,10,26,5,32,T,3,Rain-Thunderstorm,342
2013-9-6,86,68,49,57,50,39,96,60,23,30.08,30.00,29.88,10,10,10,24,6,29,0.00,2,Thunderstorm,192
2013-9-7,79,65,51,55,50,43,93,65,36,30.21,30.04,29.93,10,10,5,20,5,24,0.11,4,Rain-Thunderstorm,137
2013-9-8,73,60,47,53,46,37,100,66,31,30.14,29.99,29.88,10,10,10,21,6,26,T,5,,317
2013-9-9,69,55,40,42,40,37,86,59,32,30.09,30.03,29.96,10,10,10,14,5,20,0.00,3,,326
2013-9-10,77,58,38,43,37,32,92,56,20,30.16,30.10,30.03,10,10,10,12,2,13,0.00,0,,158
2013-9-11,79,59,39,41,36,31,79,48,17,30.24,30.18,30.14,10,10,10,20,6,25,0.00,0,,113
2013-9-12,77,65,52,46,43,41,71,50,28,30.19,30.10,29.98,10,10,10,17,6,23,0.00,1,,151
2013-9-13,79,64,49,55,48,43,93,62,30,30.02,29.92,29.78,10,10,5,18,5,26,0.29,4,Rain-Thunderstorm,133
2013-9-14,72,62,52,52,48,43,93,66,38,30.05,29.99,29.88,10,10,10,20,6,25,T,3,Rain,41
2013-9-15,73,64,54,50,48,47,77,58,38,30.05,29.98,29.88,10,10,10,21,9,25,T,3,Thunderstorm,148
2013-9-16,76,63,49,51,47,42,93,62,31,29.92,29.85,29.76,10,10,7,24,6,29,0.03,1,Rain,174
2013-9-17,56,48,40,50,46,37,93,85,77,29.94,29.80,29.69,10,8,2,16,4,23,0.45,5,Rain-Thunderstorm,211
2013-9-18,52,47,41,43,38,31,100,75,50,30.11,29.86,29.71,10,10,4,20,6,25,0.12,6,Rain-Thunderstorm,318
2013-9-19,61,48,34,36,33,29,89,59,29,30.22,30.14,30.08,10,10,10,10,3,17,0.00,2,,106
2013-9-20,72,51,30,34,30,23,92,54,16,30.11,29.96,29.79,10,10,10,15,4,21,0.00,0,,145
2013-9-21,75,55,34,35,30,26,82,51,19,29.78,29.67,29.57,10,10,10,25,6,30,0.00,2,,205
2013-9-22,61,52,42,45,39,33,89,66,42,29.81,29.66,29.57,10,10,4,21,4,30,0.10,5,Rain-Thunderstorm,307
2013-9-23,59,50,40,40,33,26,93,62,30,29.98,29.88,29.73,10,10,10,21,6,25,T,4,,282
2013-9-24,50,43,35,43,36,32,92,79,65,29.96,29.85,29.77,10,8,2,14,3,18,0.57,6,Rain,13
2013-9-25,44,38,32,38,35,31,100,85,70,29.79,29.72,29.64,10,8,1,16,3,22,0.69,7,Rain-Snow,142
2013-9-26,39,35,30,36,31,26,100,88,75,30.07,29.91,29.76,10,7,1,14,5,17,0.07,8,Snow,351
2013-9-27,46,34,21,30,26,20,92,69,45,30.14,30.07,29.98,10,10,10,18,4,23,0.00,4,,214
2013-9-28,55,48,40,37,33,29,66,58,50,29.98,29.92,29.78,10,10,10,18,4,24,0.00,8,,182
2013-9-29,56,47,38,37,35,32,92,68,43,29.82,29.73,29.58,10,10,4,28,10,37,0.11,7,Rain,202
2013-9-30,50,42,33,40,32,20,92,62,31,29.98,29.77,29.57,10,9,4,31,9,40,0.38,5,Rain,292